Regional Weather Roundup
Issued by NWS Charleston, SC

Current Version | Previous Version | Graphics & Text | Print | Product List | Glossary On
Versions: 1 2 3 4 5 6 7 8 9 10 11 12 13 14 15 16 17 18 19 20 21 22 23 24 25 26 27 28 29 30 31 32 33 34 35 36 37 38 39 40 41 42 43 44 45 46 47 48 49 50
000 ASUS42 KCHS 290313 RWRCHS REGIONAL WEATHER ROUNDUP NATIONAL WEATHER SERVICE CHARLESTON SC 1100 PM EDT SAT MAY 28 2016 NOTE: "FAIR" INDICATES FEW OR NO CLOUDS BELOW 12,000 FEET WITH NO SIGNIFICANT WEATHER AND/OR OBSTRUCTIONS TO VISIBILITY. NOT ALL STATIONS ARE QUALITY CONTROLLED. USE DATA WITH CAUTION... ESPECIALLY DEWPOINT OBSERVATIONS. SCZ027-030-031-034>040-042>050-290400- ...SOUTHEAST SOUTH CAROLINA... CITY SKY/WX TMP DP RH WIND PRES REMARKS N CHARLESTON CLOUDY 69 67 93 N16 30.02S WATERFRONT PRK N/A 69 69 100 N12 30.00F MOUNT PLEASANT LGT RAIN 70 70 100 N6 30.02S JOHNS ISLAND HVY RAIN 70 70 100 N3G13 30.02S VSB 1 PINOPOLIS N/A 72 70 94 N15 29.98 MONCKS CORNER CLOUDY 68 66 94 N8 30.05S SUMMERVILLE RAIN 68 68 100 N9 30.05F BEAUFORT MCAS HVY RAIN 70 69 97 N9 30.05S FOG BEAUFORT ARPT TSTM 70 68 94 N15G23 30.04S HILTON HEAD IS HVY RAIN 70 70 100 N22G30 30.03S WALTERBORO HVY RAIN 68 68 100 N8 30.06F ALLENDALE LGT RAIN 68 66 94 N6 30.08S ...SOUTHERN MIDLANDS AND PEE DEE... CITY SKY/WX TMP DP RH WIND PRES REMARKS GEORGETOWN CLOUDY 72 70 94 NE9 30.05F KINGSTREE DRIZZLE 70 68 94 NW5 30.08F ORANGEBURG LGT RAIN 68 66 93 CALM 30.09F BARNWELL LGT RAIN 70 70 100 NE8 30.11S AIKEN LGT RAIN 66 64 94 NE3 30.16R MANNING LGT RAIN 68 68 100 N5 30.08F COLUMBIA LGT RAIN 72 67 84 CALM 30.11F SUMTER NOT AVBL FLORENCE MOCLDY 73 70 90 N7 30.10S MYRTLE BEACH CLOUDY 73 64 73 E16G23 30.09 N MYRTLE BEACH LGT RAIN 73 71 93 NE7 30.07S $$ GAZ063-065-086>088-099>101-113>116-118-119-134>141-150-290400- ...SOUTHEAST GEORGIA... CITY SKY/WX TMP DP RH WIND PRES REMARKS SAVANNAH ARPT LGT RAIN 69 67 93 N8 30.04F HUNTER AAF NOT AVBL FORT STEWART NOT AVBL STATESBORO MOCLDY 70 66 88 NE5 30.08S SYLVANIA CLOUDY 71 66 86 NE6 30.09F CLAXTON FAIR 71 65 82 CALM 30.08S ...CSRA...CENTRAL AND FAR SOUTHEAST GEORGIA... CITY SKY/WX TMP DP RH WIND PRES REMARKS THOMSON CLOUDY 75 70 83 CALM 30.16R AUGUSTA-BUSH LGT RAIN 68 66 93 E8 30.10S AUGUSTA-DANIEL LGT RAIN 72 63 73 E10G20 30.11S SWAINSBORO MOCLDY 70 66 88 CALM 30.12S VIDALIA CLOUDY 72 63 73 CALM 30.10F EASTMAN CLOUDY 76 67 74 E6 30.12S HAZLEHURST CLOUDY 76 66 71 E3 30.09S ALMA CLOUDY 74 64 71 N5 30.08S WAYCROSS CLOUDY 73 67 81 CALM 30.08S JESUP FAIR 68 63 83 N6 30.07R BAXLEY MOCLDY 73 64 73 CALM 30.09S BRUNSWICK CLOUDY 73 68 83 NW3 30.05F SAINT SIMONS CLOUDY 72 67 84 NW7 30.04R $$ SCZ027-028-034-036>038-045-046-048>050-GAZ119-141-290400- ...LAKE AND SUPPLEMENTAL COASTAL OBSERVATIONS... STATION/POSITION TIME TEMP WIND PRES WAVE SWELL AIR SEA DIR/SP/G HT/PER HT/PER/DIR (UTC) (F) (DEG/KT/KT) (MB) (FT/S) (FT/S/D) WINYAH BAY 0145 73 50/ 9 1017.0 LAKE MURRAY 0200 72 120/ 4/ 6 1019.6R ACE BASIN NERRS NOT AVBL FORT PULASKI 0200 1017.3R SAPELO ISLAND 0200 72 350/ 9 1017.0S $$ ANZ835-935-AMZ111-154-330-350-352-354-370-450-454-472-290400- ...C-MAN AND BUOY OBSERVATIONS... STATION/POSITION TIME TEMP WIND PRES WAVE SWELL AIR SEA DIR/SP/G HT/PER HT/PER/DIR (UTC) (F) (DEG/KT/KT) (MB) (FT/S) (FT/S/D) BUOY 41004 0250 77 78 90/ 21/ 27 1014.4F 9/ 8 5/ 8 BUOY 41008 0250 73 76 350/ 19/ 25 1015.4F 7/ 9 3/110/ 9 FOLLY BEACH CMAN 0200 70 350/ 14/ 18 1016.5F CAPERS NEARSHORE 0208 73 76 40/ 17/ 27 1016.7F FRIPP NEARSHORE 0208 71 76 360/ 23/ 33 1015.4F STATION/POSITION TIME TEMP WIND PRES WAVE SWELL AIR SEA DIR/SP/G HT/PER HT/PER/DIR (UTC) (F) (DEG/KT/KT) (MB) (FT/S) (FT/S/D) 5E ST. MARYS GA NOT AVBL FRYING PAN BUOY 0200 76 77 80/ 16/ 17 1017.5S BUOY 41025 0250 78 78 130/ 16/ 17 1020.1F 4/ 8 2/130/ 8 CAPE LOOKOUT NC 0200 75 80/ 8/ 9 1019.4S BUOY 41002 0250 75 76 120/ 17/ 19 1018.6S 5/ 7 BUOY 41010 0220 79 79 220/ 8/ 8 1016.6R ST AUGUSTINE FL 0300 75 79 360/ 19/ 21 1018.0R $$

USA.gov is the U.S. government's official web portal to all federal, state and local government web resources and services.